Location: Albany
(35.0170°S, 117.8920°E)
Time: 16:40:23
(UTC+08:00)

Transit 2A - Pass Details

Date: 30 January 2021
Orbit: 601 x 958 km, 66.7° (Epoch: 02 March)

Event Time Altitude Azimuth Distance (km) Brightness Sun altitude
Rises 23:55:58 0° 208° (SSW) 3,577 10.3 -36.9°
Reaches altitude 10° 23:58:28 10° 208° (SSW) 2,661 9.4 -37.0°
Enters shadow 00:02:17 40° 210° (SSW) 1,383 7.5 -37.0°
Maximum altitude 00:04:47 85° 294° (WNW) 971 - -37.1°
Drops below altitude 10° 00:11:08 10° 23° (NNE) 2,678 - -37.2°
Sets 00:13:39 0° 23° (NNE) 3,601 - -37.2°
